EWG8L EDDH-EDDS

Flight info

Callsign EWG8L
Flight time 0h 56m
Altitude 35000
Route IDEKO7G/33 IDEKO N850 NIE DCT BERXO DCT SILWE DCT OSBIT P605 TOSTU T726 LBU
Aircraft A320/M-SDE3FGHIRWY/LB1

Departure

Time 2026-05-05 14:40
Airport Hamburg Helmut Schmidt Airport (EDDH)

Arrival

Time 2026-05-05 15:36
Airport Stuttgart Airport (EDDS)
Time Latitude Longitude Altitude Speed Heading
2026-05-05 14:21 53.63206 10.00361 49 ft 0 kts 86°
2026-05-05 14:22 53.63206 10.00360 49 ft 0 kts 86°
2026-05-05 14:25 53.63206 10.00359 48 ft 0 kts 86°
2026-05-05 14:27 53.63206 10.00358 48 ft 0 kts 86°
2026-05-05 14:31 53.63206 10.00357 48 ft 0 kts 86°
2026-05-05 14:34 53.63206 10.00356 48 ft 0 kts 86°
2026-05-05 14:35 53.63206 10.00353 48 ft 2 kts 86°
2026-05-05 14:35 53.63205 10.00325 48 ft 2 kts 86°
2026-05-05 14:35 53.63203 10.00296 48 ft 2 kts 86°
2026-05-05 14:35 53.63202 10.00268 48 ft 2 kts 111°
2026-05-05 14:36 53.63212 10.00248 48 ft 1 kts 171°
2026-05-05 14:36 53.63213 10.00247 42 ft 0 kts 171°
2026-05-05 14:37 53.63188 10.00250 46 ft 8 kts 176°
2026-05-05 14:38 53.63134 10.00256 48 ft 7 kts 176°
2026-05-05 14:38 53.63088 10.00261 46 ft 7 kts 177°
2026-05-05 14:38 53.63011 10.00201 48 ft 14 kts 213°
2026-05-05 14:38 53.62934 10.00117 48 ft 13 kts 213°
2026-05-05 14:39 53.62868 10.00032 48 ft 11 kts 231°
2026-05-05 14:39 53.62832 9.99919 47 ft 11 kts 246°
2026-05-05 14:39 53.62815 9.99791 45 ft 11 kts 301°
2026-05-05 14:39 53.62888 9.99728 45 ft 22 kts 333°
2026-05-05 14:40 53.63269 9.99401 47 ft 97 kts 333°
2026-05-05 14:40 53.64049 9.98726 52 ft 152 kts 332°
2026-05-05 14:40 53.65086 9.97841 401 ft 170 kts 336°
2026-05-05 14:40 53.66138 9.96917 1127 ft 171 kts 335°
2026-05-05 14:41 53.67235 9.95970 1685 ft 187 kts 335°
2026-05-05 14:41 53.68474 9.94894 2050 ft 212 kts 335°
2026-05-05 14:41 53.69813 9.93708 2797 ft 223 kts 335°
2026-05-05 14:41 53.71037 9.92087 3694 ft 226 kts 304°
2026-05-05 14:42 53.71465 9.89542 4585 ft 237 kts 268°
2026-05-05 14:42 53.71054 9.86740 5087 ft 260 kts 251°
2026-05-05 14:42 53.70450 9.83837 6023 ft 265 kts 251°
2026-05-05 14:42 53.69834 9.80888 6921 ft 268 kts 251°
2026-05-05 14:43 53.69219 9.77903 7852 ft 270 kts 251°
2026-05-05 14:43 53.68606 9.74893 8784 ft 273 kts 251°
2026-05-05 14:43 53.67994 9.71835 9586 ft 278 kts 251°
2026-05-05 14:43 53.67381 9.68743 9842 ft 278 kts 251°
2026-05-05 14:44 53.66760 9.65602 10026 ft 293 kts 250°
2026-05-05 14:44 53.65803 9.62425 10349 ft 316 kts 235°
2026-05-05 14:44 53.64265 9.59697 10987 ft 326 kts 219°
2026-05-05 14:44 53.62317 9.57791 11734 ft 333 kts 203°
2026-05-05 14:45 53.60043 9.56878 12488 ft 341 kts 188°
2026-05-05 14:45 53.57673 9.56422 13247 ft 345 kts 188°
2026-05-05 14:45 53.55273 9.55964 13965 ft 349 kts 188°
2026-05-05 14:45 53.52848 9.55494 14621 ft 353 kts 189°
2026-05-05 14:46 53.50400 9.55012 15305 ft 356 kts 189°
2026-05-05 14:46 53.47928 9.54528 15986 ft 359 kts 189°
2026-05-05 14:46 53.45439 9.54037 16662 ft 362 kts 189°
2026-05-05 14:46 53.42958 9.53548 17315 ft 365 kts 189°
2026-05-05 14:47 53.40421 9.53049 17971 ft 369 kts 189°
2026-05-05 14:47 53.37866 9.52547 18569 ft 372 kts 189°
2026-05-05 14:47 53.35291 9.52044 19134 ft 374 kts 189°
2026-05-05 14:47 53.32692 9.51536 19712 ft 377 kts 189°
2026-05-05 14:48 53.30078 9.51024 20278 ft 379 kts 189°
2026-05-05 14:48 53.27450 9.50505 20851 ft 381 kts 189°
2026-05-05 14:48 53.24805 9.49985 21404 ft 384 kts 189°
2026-05-05 14:48 53.22147 9.49465 21958 ft 386 kts 189°
2026-05-05 14:49 53.19470 9.48942 22516 ft 388 kts 189°
2026-05-05 14:49 53.16775 9.48415 23061 ft 391 kts 190°
2026-05-05 14:49 53.14101 9.47892 23562 ft 393 kts 190°
2026-05-05 14:49 53.11380 9.47362 24004 ft 395 kts 190°
2026-05-05 14:50 53.08640 9.46830 24460 ft 397 kts 190°
2026-05-05 14:50 53.05898 9.46300 24906 ft 398 kts 190°
2026-05-05 14:50 53.03142 9.45766 25347 ft 399 kts 190°
2026-05-05 14:50 53.00380 9.45234 25781 ft 400 kts 190°
2026-05-05 14:51 52.97610 9.44698 26211 ft 402 kts 191°
2026-05-05 14:51 52.94832 9.44125 26632 ft 403 kts 191°
2026-05-05 14:51 52.92085 9.43531 27052 ft 404 kts 191°
2026-05-05 14:51 52.89290 9.42912 27470 ft 406 kts 192°
2026-05-05 14:52 52.86488 9.42293 27862 ft 407 kts 191°
2026-05-05 14:52 52.83667 9.41679 28256 ft 409 kts 191°
2026-05-05 14:52 52.80836 9.41071 28648 ft 411 kts 191°
2026-05-05 14:52 52.77995 9.40467 29029 ft 413 kts 191°
2026-05-05 14:53 52.75138 9.39864 29392 ft 415 kts 191°
2026-05-05 14:53 52.72266 9.39257 29748 ft 417 kts 191°
2026-05-05 14:53 52.69385 9.38649 30070 ft 418 kts 191°
2026-05-05 14:53 52.66489 9.38035 30359 ft 420 kts 191°
2026-05-05 14:54 52.63608 9.37638 30623 ft 425 kts 184°
2026-05-05 14:54 52.60642 9.38000 30898 ft 432 kts 175°
2026-05-05 14:54 52.57689 9.39044 31179 ft 436 kts 172°
2026-05-05 14:54 52.54736 9.40170 31535 ft 435 kts 172°
2026-05-05 14:55 52.51791 9.41285 31955 ft 433 kts 172°
2026-05-05 14:55 52.48855 9.42385 32363 ft 432 kts 172°
2026-05-05 14:55 52.45934 9.43469 32762 ft 430 kts 173°
2026-05-05 14:55 52.43023 9.44542 33156 ft 429 kts 173°
2026-05-05 14:56 52.40116 9.45617 33554 ft 427 kts 173°
2026-05-05 14:56 52.37259 9.46675 33952 ft 425 kts 173°
2026-05-05 14:56 52.34391 9.47742 34368 ft 421 kts 173°
2026-05-05 14:56 52.31538 9.48805 34691 ft 421 kts 173°
2026-05-05 14:57 52.28679 9.49866 34855 ft 421 kts 173°
2026-05-05 14:57 52.25831 9.50924 34897 ft 418 kts 173°
2026-05-05 14:57 52.20169 9.53011 34891 ft 416 kts 173°
2026-05-05 14:58 52.14518 9.55084 34889 ft 416 kts 173°
2026-05-05 14:58 52.08924 9.57145 34892 ft 413 kts 173°
2026-05-05 14:59 52.03384 9.59169 34882 ft 413 kts 173°
2026-05-05 14:59 51.97772 9.61213 34879 ft 413 kts 173°
2026-05-05 15:00 51.93115 9.62917 34881 ft 413 kts 173°
2026-05-05 15:00 51.86600 9.65286 34872 ft 413 kts 172°
2026-05-05 15:01 51.81000 9.67315 34870 ft 412 kts 172°
2026-05-05 15:01 51.75400 9.69348 34866 ft 413 kts 172°
2026-05-05 15:02 51.69797 9.71371 34854 ft 412 kts 172°
2026-05-05 15:02 51.64236 9.73361 34838 ft 412 kts 173°
2026-05-05 15:03 51.58653 9.75363 34844 ft 411 kts 172°
2026-05-05 15:03 51.53081 9.77367 34854 ft 410 kts 172°
2026-05-05 15:04 51.47516 9.79359 34852 ft 410 kts 172°
2026-05-05 15:04 51.41951 9.81340 34850 ft 409 kts 172°
2026-05-05 15:05 51.33653 9.84284 34841 ft 409 kts 171°
2026-05-05 15:06 51.28103 9.86248 34834 ft 409 kts 171°
2026-05-05 15:06 51.22542 9.87974 34831 ft 404 kts 179°
2026-05-05 15:07 51.16958 9.87731 34829 ft 401 kts 186°
2026-05-05 15:07 51.11418 9.87236 34807 ft 402 kts 185°
2026-05-05 15:08 51.05823 9.86749 34802 ft 403 kts 185°
2026-05-05 15:08 51.00221 9.86267 34802 ft 404 kts 185°
2026-05-05 15:09 50.94599 9.85780 34803 ft 405 kts 185°
2026-05-05 15:09 50.88973 9.85293 34795 ft 405 kts 185°
2026-05-05 15:10 50.83384 9.84811 34807 ft 405 kts 184°
2026-05-05 15:10 50.77756 9.84323 34810 ft 405 kts 185°
2026-05-05 15:11 50.72146 9.83830 34806 ft 405 kts 185°
2026-05-05 15:11 50.66524 9.83344 34806 ft 405 kts 184°
2026-05-05 15:12 50.60940 9.82871 34794 ft 404 kts 185°
2026-05-05 15:12 50.55328 9.82399 34797 ft 404 kts 185°
2026-05-05 15:13 50.49720 9.81911 34800 ft 404 kts 185°
2026-05-05 15:13 50.44112 9.81436 34793 ft 404 kts 185°
2026-05-05 15:14 50.38495 9.80971 34794 ft 405 kts 185°
2026-05-05 15:14 50.32906 9.80494 34799 ft 405 kts 185°
2026-05-05 15:15 50.27278 9.80009 34798 ft 405 kts 185°
2026-05-05 15:15 50.21640 9.79536 34799 ft 406 kts 184°
2026-05-05 15:16 50.15996 9.79060 34806 ft 407 kts 184°
2026-05-05 15:16 50.11297 9.78660 34809 ft 407 kts 184°
2026-05-05 15:17 50.04717 9.78444 34736 ft 409 kts 179°
2026-05-05 15:17 50.01876 9.78633 33948 ft 414 kts 179°
2026-05-05 15:17 49.98990 9.78822 33059 ft 416 kts 179°
2026-05-05 15:17 49.96113 9.79004 32549 ft 410 kts 179°
2026-05-05 15:18 49.94235 9.79122 32198 ft 406 kts 178°
2026-05-05 15:18 49.91433 9.79301 31661 ft 401 kts 178°
2026-05-05 15:18 49.88662 9.79479 31133 ft 396 kts 178°
2026-05-05 15:18 49.85924 9.79660 30613 ft 392 kts 178°
2026-05-05 15:19 49.83214 9.79837 30102 ft 388 kts 178°
2026-05-05 15:19 49.79667 9.80063 29381 ft 383 kts 178°
2026-05-05 15:19 49.77874 9.80176 29048 ft 380 kts 178°
2026-05-05 15:19 49.75254 9.80340 28551 ft 375 kts 178°
2026-05-05 15:20 49.72703 9.80498 28078 ft 370 kts 178°
2026-05-05 15:20 49.70142 9.80658 27565 ft 367 kts 178°
2026-05-05 15:20 49.67609 9.80795 27074 ft 363 kts 178°
2026-05-05 15:20 49.65096 9.80911 26592 ft 359 kts 178°
2026-05-05 15:21 49.62608 9.81016 26121 ft 356 kts 178°
2026-05-05 15:21 49.60155 9.81265 25667 ft 352 kts 172°
2026-05-05 15:21 49.57750 9.81914 25206 ft 350 kts 170°
2026-05-05 15:21 49.55362 9.82579 24757 ft 349 kts 170°
2026-05-05 15:22 49.52979 9.83242 24316 ft 347 kts 169°
2026-05-05 15:22 49.50612 9.83897 23861 ft 345 kts 169°
2026-05-05 15:22 49.48286 9.84541 23409 ft 343 kts 169°
2026-05-05 15:22 49.45929 9.85125 22902 ft 344 kts 171°
2026-05-05 15:23 49.43580 9.85742 22445 ft 341 kts 170°
2026-05-05 15:23 49.41256 9.86385 21976 ft 339 kts 172°
2026-05-05 15:23 49.38873 9.86280 21532 ft 348 kts 191°
2026-05-05 15:23 49.36515 9.85395 21096 ft 350 kts 194°
2026-05-05 15:24 49.34163 9.84437 20665 ft 349 kts 194°
2026-05-05 15:24 49.31821 9.83477 20227 ft 348 kts 194°
2026-05-05 15:24 49.29484 9.82525 19730 ft 347 kts 194°
2026-05-05 15:24 49.27158 9.81582 19248 ft 345 kts 194°
2026-05-05 15:25 49.24840 9.80643 18771 ft 344 kts 194°
2026-05-05 15:25 49.22525 9.79711 18302 ft 343 kts 194°
2026-05-05 15:25 49.20252 9.78799 17784 ft 341 kts 194°
2026-05-05 15:25 49.17975 9.77890 17265 ft 336 kts 194°
2026-05-05 15:26 49.15715 9.76992 16739 ft 335 kts 194°
2026-05-05 15:26 49.13460 9.76095 16224 ft 335 kts 194°
2026-05-05 15:26 49.11227 9.75213 15723 ft 328 kts 194°
2026-05-05 15:26 49.09033 9.74384 15221 ft 323 kts 194°
2026-05-05 15:27 49.06848 9.73581 14610 ft 324 kts 194°
2026-05-05 15:27 49.04649 9.72775 14020 ft 328 kts 194°
2026-05-05 15:27 49.02444 9.71971 13393 ft 321 kts 194°
2026-05-05 15:27 49.00323 9.71206 12737 ft 313 kts 194°
2026-05-05 15:28 48.98224 9.70453 12089 ft 307 kts 194°
2026-05-05 15:28 48.96156 9.69718 11451 ft 303 kts 194°
2026-05-05 15:28 48.94110 9.68998 10706 ft 300 kts 194°
2026-05-05 15:28 48.92091 9.68298 9983 ft 297 kts 194°
2026-05-05 15:29 48.90087 9.67610 9213 ft 293 kts 194°
2026-05-05 15:29 48.88112 9.66945 8424 ft 289 kts 194°
2026-05-05 15:29 48.86158 9.66300 7659 ft 285 kts 194°
2026-05-05 15:29 48.84230 9.65656 6915 ft 282 kts 194°
2026-05-05 15:30 48.82327 9.65011 6171 ft 278 kts 195°
2026-05-05 15:30 48.80595 9.63829 5412 ft 273 kts 218°
2026-05-05 15:30 48.79247 9.61937 5114 ft 254 kts 230°
2026-05-05 15:30 48.78338 9.59794 4937 ft 236 kts 239°
2026-05-05 15:31 48.77551 9.57700 4822 ft 226 kts 239°
2026-05-05 15:31 48.76770 9.55627 4725 ft 226 kts 239°
2026-05-05 15:31 48.75993 9.53561 4628 ft 225 kts 240°
2026-05-05 15:31 48.75221 9.51504 4517 ft 222 kts 240°
2026-05-05 15:32 48.74483 9.49538 4407 ft 206 kts 239°
2026-05-05 15:32 48.73865 9.47685 4313 ft 191 kts 247°
2026-05-05 15:32 48.73446 9.45806 4087 ft 185 kts 252°
2026-05-05 15:32 48.73084 9.43944 3855 ft 183 kts 252°
2026-05-05 15:33 48.72744 9.42147 3607 ft 177 kts 253°
2026-05-05 15:33 48.72414 9.40392 3418 ft 170 kts 253°
2026-05-05 15:33 48.72097 9.38706 3169 ft 159 kts 253°
2026-05-05 15:33 48.71811 9.37178 2942 ft 143 kts 254°
2026-05-05 15:34 48.71543 9.35754 2762 ft 140 kts 254°
2026-05-05 15:34 48.71280 9.34355 2581 ft 137 kts 255°
2026-05-05 15:34 48.71018 9.32961 2409 ft 138 kts 254°
2026-05-05 15:34 48.70758 9.31579 2215 ft 136 kts 254°
2026-05-05 15:35 48.70496 9.30187 2011 ft 139 kts 255°
2026-05-05 15:35 48.70230 9.28779 1819 ft 141 kts 256°
2026-05-05 15:35 48.69956 9.27339 1613 ft 143 kts 254°
2026-05-05 15:35 48.69679 9.25888 1409 ft 146 kts 255°
2026-05-05 15:36 48.69408 9.24415 1245 ft 145 kts 256°
2026-05-05 15:36 48.69156 9.23081 1215 ft 112 kts 254°
2026-05-05 15:36 48.68995 9.22220 1243 ft 56 kts 254°
2026-05-05 15:36 48.68936 9.21807 1245 ft 27 kts 275°
2026-05-05 15:37 48.68969 9.21578 1258 ft 8 kts 284°
2026-05-05 15:37 48.68976 9.21538 1255 ft 1 kts 284°
2026-05-05 15:37 48.68985 9.21481 1255 ft 14 kts 284°
2026-05-05 15:37 48.69004 9.21355 1260 ft 10 kts 277°
2026-05-05 15:38 48.68988 9.21269 1265 ft 9 kts 253°
2026-05-05 15:38 48.68974 9.21196 1268 ft 7 kts 253°
2026-05-05 15:38 48.68957 9.21111 1268 ft 8 kts 254°
2026-05-05 15:38 48.68925 9.20941 1269 ft 22 kts 254°
2026-05-05 15:39 48.68884 9.20728 1274 ft 21 kts 254°
2026-05-05 15:39 48.68849 9.20540 1279 ft 16 kts 255°
2026-05-05 15:39 48.68820 9.20388 1282 ft 16 kts 253°
2026-05-05 15:39 48.68794 9.20249 1286 ft 14 kts 253°
2026-05-05 15:40 48.68762 9.20084 1289 ft 16 kts 254°
2026-05-05 15:40 48.68763 9.19917 1295 ft 15 kts 272°
2026-05-05 15:40 48.68747 9.19792 1298 ft 11 kts 254°
2026-05-05 15:40 48.68711 9.19612 1303 ft 23 kts 253°
2026-05-05 15:41 48.68673 9.19402 1309 ft 19 kts 254°
2026-05-05 15:41 48.68643 9.19242 1313 ft 11 kts 261°
2026-05-05 15:41 48.68668 9.19169 1316 ft 6 kts 328°
2026-05-05 15:41 48.68722 9.19144 1318 ft 12 kts 348°
2026-05-05 15:42 48.68779 9.19225 1316 ft 15 kts 76°
2026-05-05 15:42 48.68811 9.19403 1313 ft 14 kts 74°
2026-05-05 15:42 48.68849 9.19452 1313 ft 5 kts 329°
2026-05-05 15:42 48.68873 9.19439 1315 ft 3 kts 342°
2026-05-05 15:43 48.68888 9.19432 1315 ft 5 kts 343°
2026-05-05 15:43 48.36286 11.76882 1315 ft 0 kts 83°